JST460 YSSY-YBNA

Flight info

Callsign JST460
Flight time 0h 54m
Altitude 35000
Route OLSEM Y193 BNA
Aircraft A20N/M-SDE2E3FGHIRWXY/LB1

Departure

Time 2026-04-20 04:55
Airport Sydney Kingsford Smith International Airport (YSSY)

Arrival

Time 2026-04-20 05:49
Airport Ballina Byron Gateway Airport (YBNA)
Time Latitude Longitude Altitude Speed Heading
2026-04-20 04:23 -33.93525 151.17779 34 ft 0 kts 279°
2026-04-20 04:44 -33.93526 151.17788 33 ft 3 kts 279°
2026-04-20 04:44 -33.93530 151.17810 34 ft 3 kts 260°
2026-04-20 04:44 -33.93521 151.17829 31 ft 2 kts 227°
2026-04-20 04:44 -33.93513 151.17836 32 ft 0 kts 181°
2026-04-20 04:47 -33.93515 151.17836 32 ft 2 kts 182°
2026-04-20 04:47 -33.93550 151.17832 33 ft 7 kts 188°
2026-04-20 04:47 -33.93604 151.17821 33 ft 8 kts 189°
2026-04-20 04:48 -33.93664 151.17809 34 ft 9 kts 190°
2026-04-20 04:48 -33.93731 151.17794 30 ft 11 kts 191°
2026-04-20 04:48 -33.93841 151.17774 24 ft 19 kts 183°
2026-04-20 04:48 -33.93962 151.17795 27 ft 17 kts 166°
2026-04-20 04:49 -33.94074 151.17824 28 ft 17 kts 168°
2026-04-20 04:49 -33.94186 151.17856 27 ft 16 kts 167°
2026-04-20 04:49 -33.94296 151.17883 28 ft 16 kts 170°
2026-04-20 04:49 -33.94409 151.17911 27 ft 17 kts 173°
2026-04-20 04:50 -33.94522 151.17886 26 ft 17 kts 179°
2026-04-20 04:50 -33.94627 151.17910 27 ft 15 kts 168°
2026-04-20 04:50 -33.94734 151.17938 25 ft 17 kts 167°
2026-04-20 04:50 -33.94855 151.17969 24 ft 18 kts 168°
2026-04-20 04:51 -33.94976 151.17999 27 ft 17 kts 169°
2026-04-20 04:51 -33.95075 151.18033 29 ft 13 kts 147°
2026-04-20 04:51 -33.95098 151.18130 28 ft 13 kts 80°
2026-04-20 04:51 -33.95079 151.18241 28 ft 14 kts 77°
2026-04-20 04:52 -33.95060 151.18348 29 ft 13 kts 78°
2026-04-20 04:52 -33.95042 151.18449 29 ft 12 kts 76°
2026-04-20 04:52 -33.95024 151.18544 30 ft 12 kts 78°
2026-04-20 04:52 -33.95006 151.18644 28 ft 13 kts 78°
2026-04-20 04:53 -33.95001 151.18678 28 ft 4 kts 78°
2026-04-20 04:53 -33.94990 151.18740 27 ft 19 kts 82°
2026-04-20 04:53 -33.95006 151.18826 27 ft 10 kts 127°
2026-04-20 04:53 -33.95058 151.18861 26 ft 4 kts 166°
2026-04-20 04:54 -33.95067 151.18862 30 ft 0 kts 171°
2026-04-20 04:54 -33.95096 151.18868 28 ft 19 kts 170°
2026-04-20 04:54 -33.95476 151.18964 27 ft 90 kts 168°
2026-04-20 04:54 -33.96278 151.19167 114 ft 136 kts 170°
2026-04-20 04:55 -33.97180 151.19433 778 ft 130 kts 159°
2026-04-20 04:55 -33.97940 151.20054 1424 ft 138 kts 142°
2026-04-20 04:55 -33.98652 151.20868 2021 ft 145 kts 139°
2026-04-20 04:55 -33.99296 151.21882 2778 ft 160 kts 127°
2026-04-20 04:56 -33.99859 151.23098 3558 ft 172 kts 124°
2026-04-20 04:56 -34.00609 151.24346 3965 ft 200 kts 137°
2026-04-20 04:56 -34.01723 151.25555 4477 ft 229 kts 143°
2026-04-20 04:56 -34.03014 151.26804 4893 ft 249 kts 144°
2026-04-20 04:57 -34.04377 151.28114 5098 ft 251 kts 144°
2026-04-20 04:57 -34.05754 151.29445 5641 ft 256 kts 143°
2026-04-20 04:57 -34.07142 151.30795 6749 ft 256 kts 144°
2026-04-20 04:57 -34.08535 151.32153 7763 ft 260 kts 143°
2026-04-20 04:58 -34.09909 151.33587 8796 ft 263 kts 137°
2026-04-20 04:58 -34.10985 151.35411 9761 ft 275 kts 119°
2026-04-20 04:58 -34.11443 151.37699 10604 ft 291 kts 96°
2026-04-20 04:58 -34.11066 151.40181 11250 ft 315 kts 70°
2026-04-20 04:59 -34.09817 151.42424 11996 ft 328 kts 53°
2026-04-20 04:59 -34.08271 151.44485 12865 ft 335 kts 49°
2026-04-20 04:59 -34.06507 151.46365 13745 ft 343 kts 36°
2026-04-20 04:59 -34.04324 151.47661 14345 ft 361 kts 20°
2026-04-20 05:00 -34.01856 151.48539 14775 ft 378 kts 15°
2026-04-20 05:00 -33.99279 151.49343 15436 ft 386 kts 15°
2026-04-20 05:00 -33.96661 151.50160 16190 ft 391 kts 15°
2026-04-20 05:00 -33.94013 151.51002 16968 ft 396 kts 15°
2026-04-20 05:01 -33.91336 151.51864 17757 ft 400 kts 15°
2026-04-20 05:01 -33.88628 151.52742 18527 ft 404 kts 15°
2026-04-20 05:01 -33.85935 151.53617 19158 ft 409 kts 15°
2026-04-20 05:01 -33.83171 151.54513 19783 ft 414 kts 15°
2026-04-20 05:02 -33.80370 151.55412 20405 ft 419 kts 15°
2026-04-20 05:02 -33.77542 151.56323 21028 ft 423 kts 15°
2026-04-20 05:02 -33.74678 151.57250 21641 ft 428 kts 15°
2026-04-20 05:02 -33.71791 151.58190 22270 ft 432 kts 15°
2026-04-20 05:03 -33.68878 151.59139 22879 ft 436 kts 15°
2026-04-20 05:03 -33.65930 151.60100 23475 ft 441 kts 15°
2026-04-20 05:03 -33.62959 151.61092 24007 ft 445 kts 16°
2026-04-20 05:03 -33.59969 151.62125 24468 ft 449 kts 17°
2026-04-20 05:04 -33.56951 151.63185 24936 ft 454 kts 17°
2026-04-20 05:04 -33.53901 151.64268 25365 ft 458 kts 17°
2026-04-20 05:04 -33.50834 151.65359 25831 ft 462 kts 17°
2026-04-20 05:04 -33.47738 151.66460 26261 ft 465 kts 17°
2026-04-20 05:05 -33.44621 151.67564 26687 ft 469 kts 17°
2026-04-20 05:05 -33.41510 151.68660 27090 ft 473 kts 17°
2026-04-20 05:05 -33.38339 151.69772 27504 ft 476 kts 17°
2026-04-20 05:05 -33.35149 151.70887 27905 ft 480 kts 17°
2026-04-20 05:06 -33.31929 151.72010 28299 ft 483 kts 18°
2026-04-20 05:06 -33.28694 151.73136 28711 ft 486 kts 18°
2026-04-20 05:06 -33.25431 151.74272 29088 ft 490 kts 18°
2026-04-20 05:06 -33.22148 151.75413 29463 ft 493 kts 18°
2026-04-20 05:07 -33.18834 151.76565 29820 ft 497 kts 18°
2026-04-20 05:07 -33.15504 151.77721 30172 ft 500 kts 18°
2026-04-20 05:07 -33.12147 151.78886 30492 ft 503 kts 18°
2026-04-20 05:07 -33.08781 151.80054 30802 ft 505 kts 18°
2026-04-20 05:08 -33.05408 151.81222 31245 ft 504 kts 18°
2026-04-20 05:08 -33.03178 151.81993 31526 ft 504 kts 18°
2026-04-20 05:08 -32.99811 151.83158 31917 ft 504 kts 18°
2026-04-20 05:08 -32.95300 151.84717 32424 ft 504 kts 18°
2026-04-20 05:09 -32.93063 151.85490 32668 ft 505 kts 18°
2026-04-20 05:09 -32.89690 151.86654 33051 ft 505 kts 18°
2026-04-20 05:09 -32.85215 151.88198 33535 ft 504 kts 18°
2026-04-20 05:09 -32.81844 151.89359 33904 ft 504 kts 18°
2026-04-20 05:10 -32.79611 151.90128 34131 ft 504 kts 18°
2026-04-20 05:10 -32.76242 151.91288 34429 ft 504 kts 18°
2026-04-20 05:10 -32.72873 151.92446 34749 ft 504 kts 18°
2026-04-20 05:10 -32.69504 151.93603 35103 ft 503 kts 18°
2026-04-20 05:11 -32.66140 151.94758 35227 ft 504 kts 18°
2026-04-20 05:11 -32.59404 151.97068 35238 ft 503 kts 18°
2026-04-20 05:12 -32.52684 151.99368 35236 ft 503 kts 18°
2026-04-20 05:12 -32.45964 152.01666 35235 ft 503 kts 18°
2026-04-20 05:13 -32.39244 152.03959 35238 ft 502 kts 18°
2026-04-20 05:13 -32.32526 152.06249 35232 ft 502 kts 18°
2026-04-20 05:14 -32.25858 152.08519 35231 ft 502 kts 18°
2026-04-20 05:14 -32.19139 152.10763 35233 ft 501 kts 18°
2026-04-20 05:15 -32.12444 152.13042 35227 ft 500 kts 18°
2026-04-20 05:15 -32.05753 152.15329 35229 ft 500 kts 18°
2026-04-20 05:16 -31.99055 152.17603 35225 ft 500 kts 18°
2026-04-20 05:16 -31.92370 152.19862 35225 ft 499 kts 18°
2026-04-20 05:17 -31.85704 152.22109 35223 ft 498 kts 18°
2026-04-20 05:17 -31.79036 152.24354 35222 ft 498 kts 18°
2026-04-20 05:18 -31.72371 152.26593 35212 ft 497 kts 17°
2026-04-20 05:18 -31.65774 152.28804 35214 ft 496 kts 17°
2026-04-20 05:19 -31.59137 152.31032 35226 ft 496 kts 18°
2026-04-20 05:19 -31.52504 152.33258 35210 ft 495 kts 17°
2026-04-20 05:20 -31.45865 152.35474 35210 ft 494 kts 17°
2026-04-20 05:20 -31.39244 152.37681 35211 ft 494 kts 17°
2026-04-20 05:21 -31.32625 152.39885 35206 ft 494 kts 17°
2026-04-20 05:21 -31.26016 152.42088 35206 ft 493 kts 17°
2026-04-20 05:22 -31.19423 152.44276 35208 ft 492 kts 17°
2026-04-20 05:22 -31.12834 152.46458 35198 ft 492 kts 17°
2026-04-20 05:23 -31.06347 152.48606 35198 ft 491 kts 16°
2026-04-20 05:23 -30.99785 152.50779 35197 ft 489 kts 16°
2026-04-20 05:24 -30.93249 152.52938 35210 ft 489 kts 16°
2026-04-20 05:24 -30.86707 152.55093 35192 ft 487 kts 16°
2026-04-20 05:25 -30.80187 152.57254 35187 ft 486 kts 17°
2026-04-20 05:25 -30.73789 152.59792 35190 ft 486 kts 20°
2026-04-20 05:26 -30.67462 152.62554 35196 ft 485 kts 20°
2026-04-20 05:26 -30.61136 152.65292 35152 ft 484 kts 19°
2026-04-20 05:26 -30.58046 152.66619 34929 ft 475 kts 19°
2026-04-20 05:27 -30.54971 152.67934 34686 ft 468 kts 19°
2026-04-20 05:27 -30.51929 152.69228 34450 ft 463 kts 19°
2026-04-20 05:27 -30.48903 152.70509 33910 ft 464 kts 19°
2026-04-20 05:27 -30.45857 152.71795 33182 ft 467 kts 19°
2026-04-20 05:28 -30.42799 152.73086 32472 ft 469 kts 19°
2026-04-20 05:28 -30.39726 152.74382 31756 ft 471 kts 19°
2026-04-20 05:28 -30.36628 152.75686 31010 ft 474 kts 19°
2026-04-20 05:28 -30.33514 152.76997 30216 ft 478 kts 19°
2026-04-20 05:29 -30.30369 152.78323 29389 ft 480 kts 19°
2026-04-20 05:29 -30.27284 152.79624 28887 ft 475 kts 19°
2026-04-20 05:29 -30.24190 152.80928 28323 ft 471 kts 19°
2026-04-20 05:29 -30.21116 152.82222 27740 ft 468 kts 19°
2026-04-20 05:30 -30.18065 152.83506 27167 ft 466 kts 19°
2026-04-20 05:30 -30.15022 152.84785 26563 ft 464 kts 19°
2026-04-20 05:30 -30.11996 152.86055 25985 ft 461 kts 19°
2026-04-20 05:30 -30.08989 152.87316 25419 ft 459 kts 19°
2026-04-20 05:31 -30.06011 152.88565 25132 ft 450 kts 19°
2026-04-20 05:31 -30.03104 152.89785 24927 ft 439 kts 19°
2026-04-20 05:31 -30.00267 152.90974 24736 ft 428 kts 19°
2026-04-20 05:31 -29.97489 152.92137 24425 ft 422 kts 19°
2026-04-20 05:32 -29.94777 152.93272 24045 ft 418 kts 19°
2026-04-20 05:32 -29.92048 152.94412 23630 ft 415 kts 18°
2026-04-20 05:32 -29.89365 152.95533 23308 ft 405 kts 18°
2026-04-20 05:32 -29.86740 152.96630 22736 ft 400 kts 18°
2026-04-20 05:33 -29.84112 152.97725 21829 ft 404 kts 18°
2026-04-20 05:33 -29.81443 152.98835 20826 ft 411 kts 19°
2026-04-20 05:33 -29.78736 152.99960 19841 ft 416 kts 19°
2026-04-20 05:33 -29.75993 153.01101 18778 ft 422 kts 19°
2026-04-20 05:34 -29.73199 153.02264 17582 ft 429 kts 19°
2026-04-20 05:34 -29.70393 153.03431 16735 ft 425 kts 19°
2026-04-20 05:34 -29.64971 153.05689 15628 ft 403 kts 19°
2026-04-20 05:35 -29.62366 153.06772 15134 ft 392 kts 20°
2026-04-20 05:35 -29.59864 153.07811 14659 ft 382 kts 20°
2026-04-20 05:35 -29.57389 153.08837 14184 ft 374 kts 20°
2026-04-20 05:35 -29.54967 153.09841 13673 ft 366 kts 20°
2026-04-20 05:36 -29.52594 153.10824 13155 ft 359 kts 20°
2026-04-20 05:36 -29.50264 153.11789 12636 ft 352 kts 20°
2026-04-20 05:36 -29.47976 153.12736 12128 ft 346 kts 20°
2026-04-20 05:36 -29.45730 153.13666 11624 ft 341 kts 20°
2026-04-20 05:37 -29.43517 153.14581 11151 ft 336 kts 20°
2026-04-20 05:37 -29.41331 153.15486 10661 ft 332 kts 20°
2026-04-20 05:37 -29.39174 153.16377 10185 ft 328 kts 20°
2026-04-20 05:37 -29.37039 153.17258 9674 ft 324 kts 20°
2026-04-20 05:38 -29.34930 153.18129 9157 ft 320 kts 20°
2026-04-20 05:38 -29.32847 153.18988 8664 ft 316 kts 20°
2026-04-20 05:38 -29.30806 153.19831 8376 ft 306 kts 20°
2026-04-20 05:38 -29.28847 153.20638 8188 ft 293 kts 20°
2026-04-20 05:39 -29.26961 153.21415 7877 ft 286 kts 20°
2026-04-20 05:39 -29.25082 153.22190 7344 ft 288 kts 20°
2026-04-20 05:39 -29.23224 153.22957 6930 ft 286 kts 21°
2026-04-20 05:39 -29.21368 153.23720 6544 ft 281 kts 21°
2026-04-20 05:40 -29.19539 153.24474 6134 ft 277 kts 21°
2026-04-20 05:40 -29.17728 153.25220 5730 ft 275 kts 21°
2026-04-20 05:40 -29.15939 153.25957 5333 ft 272 kts 21°
2026-04-20 05:40 -29.14176 153.26681 5070 ft 264 kts 21°
2026-04-20 05:41 -29.12481 153.27376 4859 ft 254 kts 21°
2026-04-20 05:41 -29.10848 153.28046 4643 ft 246 kts 21°
2026-04-20 05:41 -29.09244 153.28705 4443 ft 245 kts 21°
2026-04-20 05:41 -29.07644 153.29362 4234 ft 244 kts 21°
2026-04-20 05:42 -29.06044 153.30019 4042 ft 243 kts 21°
2026-04-20 05:42 -29.04472 153.30665 3822 ft 237 kts 22°
2026-04-20 05:42 -29.02949 153.31288 3660 ft 230 kts 21°
2026-04-20 05:42 -29.01458 153.31899 3459 ft 224 kts 21°
2026-04-20 05:43 -29.00021 153.32485 3256 ft 215 kts 22°
2026-04-20 05:43 -28.98661 153.33041 3189 ft 208 kts 22°
2026-04-20 05:43 -28.97296 153.33601 3180 ft 208 kts 22°
2026-04-20 05:43 -28.95964 153.34148 3098 ft 195 kts 23°
2026-04-20 05:44 -28.94739 153.34703 3081 ft 186 kts 30°
2026-04-20 05:44 -28.93655 153.35483 2887 ft 183 kts 40°
2026-04-20 05:44 -28.92644 153.36388 2517 ft 186 kts 46°
2026-04-20 05:44 -28.91667 153.37358 2144 ft 186 kts 47°
2026-04-20 05:45 -28.90702 153.38363 1780 ft 189 kts 47°
2026-04-20 05:45 -28.89899 153.39429 1824 ft 171 kts 61°
2026-04-20 05:45 -28.89231 153.40528 1967 ft 168 kts 59°
2026-04-20 05:45 -28.88428 153.41528 1876 ft 171 kts 53°
2026-04-20 05:46 -28.87680 153.42551 1609 ft 162 kts 62°
2026-04-20 05:46 -28.87149 153.43603 1842 ft 144 kts 69°
2026-04-20 05:46 -28.86666 153.44562 1792 ft 137 kts 68°
2026-04-20 05:46 -28.86173 153.45552 1639 ft 153 kts 67°
2026-04-20 05:47 -28.85698 153.46672 1530 ft 158 kts 78°
2026-04-20 05:47 -28.85433 153.47878 1464 ft 155 kts 84°
2026-04-20 05:47 -28.85159 153.49049 1468 ft 151 kts 82°
2026-04-20 05:47 -28.84909 153.50200 1371 ft 149 kts 81°
2026-04-20 05:48 -28.84589 153.51332 1033 ft 150 kts 83°
2026-04-20 05:48 -28.84291 153.52469 693 ft 148 kts 82°
2026-04-20 05:48 -28.84013 153.53550 473 ft 136 kts 79°
2026-04-20 05:48 -28.83743 153.54557 181 ft 129 kts 77°
2026-04-20 05:49 -28.83495 153.55482 19 ft 112 kts 75°
2026-04-20 05:49 -28.83329 153.56107 19 ft 61 kts 75°
2026-04-20 05:49 -28.83246 153.56429 19 ft 8 kts 73°
2026-04-20 05:49 -28.83235 153.56469 17 ft 10 kts 72°
2026-04-20 05:50 -28.83228 153.56552 17 ft 11 kts 97°
2026-04-20 05:50 -28.83217 153.56579 17 ft 5 kts 25°
2026-04-20 05:50 -28.83210 153.56569 17 ft 6 kts 287°
2026-04-20 05:50 -28.83221 153.56517 17 ft 6 kts 251°
2026-04-20 05:51 -28.83239 153.56454 17 ft 10 kts 251°
2026-04-20 05:51 -28.83261 153.56377 20 ft 10 kts 254°
2026-04-20 05:51 -28.83284 153.56293 19 ft 12 kts 252°
2026-04-20 05:51 -28.83314 153.56197 19 ft 14 kts 249°
2026-04-20 05:52 -28.83334 153.56097 18 ft 13 kts 258°
2026-04-20 05:52 -28.83362 153.55991 20 ft 14 kts 255°
2026-04-20 05:52 -28.83376 153.55932 18 ft 2 kts 254°
2026-04-20 05:52 -28.83409 153.55803 17 ft 23 kts 253°
2026-04-20 05:53 -28.83454 153.55669 17 ft 12 kts 226°
2026-04-20 05:53 -28.83529 153.55669 19 ft 11 kts 163°
2026-04-20 05:53 -28.83605 153.55688 17 ft 9 kts 185°
2026-04-20 05:53 -28.83653 153.55674 17 ft 4 kts 211°
2026-04-20 05:54 -28.83665 153.55665 19 ft 0 kts 213°